This demonstration page uses our WeatherBlox Daily Observations layout. Learn more.

Left ArrowRight Arrow

39.51506, -84.39828

Hourly Observations for April 27, 2020

Temp ( °F °C ) Dew Point ( °F °C ) Humidity (%) Winds ( mph kmh ) Pressure ( in mb ) Visibility ( mi km ) Precip ( " mm )
12:15 am 00:15 undefined 40 4.3 40 4.3 100 100 N N/A 30.17 1022 N/A N/A
12:35 am 00:35 undefined 40 4.4 40 4.3 99 99 N N/A 30.17 1022 N/A N/A
12:55 am 00:55 undefined 38 3.1 38 3.1 100 100 N N/A 30.18 1022 N/A N/A
1:15 am 01:15 undefined 39 4 N/A N/A N N/A 30.18 1022 N/A N/A
1:35 am 01:35 undefined 38 3.6 38 3.6 100 100 N N/A 30.19 1022 N/A N/A
1:55 am 01:55 undefined 37 3 37 3 100 100 N N/A 30.20 1023 N/A N/A
2:15 am 02:15 undefined 37 3 N/A N/A N N/A 30.20 1023 N/A N/A
2:35 am 02:35 undefined 37 3 N/A N/A N N/A 30.20 1023 N/A N/A
2:55 am 02:55 undefined 36 2.2 36 2.2 100 100 N N/A 30.20 1023 N/A N/A
3:15 am 03:15 undefined 35 1.5 35 1.5 100 100 N N/A 30.20 1023 N/A N/A
3:35 am 03:35 undefined 36 2 36 2 100 100 N N/A 30.20 1023 N/A N/A
3:55 am 03:55 undefined 36 2 N/A N/A N N/A 30.20 1023 N/A N/A
4:15 am 04:15 undefined 35 1.5 35 1.4 99 99 N N/A 30.21 1023 N/A N/A
4:35 am 04:35 Cloudy 36 2 34 1 93 93 N N/A 30.21 1023 N/A N/A
4:55 am 04:55 Cloudy 34 1 N/A N/A N N/A 30.22 1023 N/A N/A
5:15 am 05:15 Cloudy 34 1 N/A N/A N N/A 30.22 1023 N/A N/A
5:35 am 05:35 undefined 34 1 N/A N/A N N/A 30.23 1024 N/A N/A
5:55 am 05:55 undefined 34 1 N/A N/A N N/A 30.22 1023 N/A N/A
6:15 am 06:15 Mostly Cloudy 34 1 N/A N/A N N/A 30.22 1023 N/A N/A
6:35 am 06:35 undefined 34 1 N/A N/A N N/A 30.23 1024 N/A N/A
6:55 am 06:55 undefined 34 1 N/A N/A N N/A 30.23 1024 N/A N/A
7:15 am 07:15 undefined 32 undefined N/A N/A N N/A 30.24 1024 N/A N/A
7:35 am 07:35 Mostly Cloudy 34 1 N/A N/A N N/A 30.24 1024 N/A N/A
7:55 am 07:55 undefined 34 1 N/A N/A N N/A 30.25 1024 N/A N/A
8:15 am 08:15 undefined 37 3 N/A N/A N N/A 30.26 1025 N/A N/A
8:35 am 08:35 undefined 39 4 N/A N/A N N/A 30.25 1025 N/A N/A
8:55 am 08:55 undefined 41 5.2 41 5.1 99 99 N N/A 30.25 1024 N/A N/A
9:15 am 09:15 undefined 44 6.4 43 6 97 97 N N/A 30.26 1025 N/A N/A
9:35 am 09:35 undefined 45 7.4 43 6.1 92 92 N N/A 30.26 1025 N/A N/A
9:55 am 09:55 undefined 47 8.4 44 6.8 90 90 N N/A 30.26 1025 N/A N/A
10:15 am 10:15 undefined 49 9.4 45 7.2 86 86 N N/A 30.26 1025 N/A N/A
10:35 am 10:35 Sunny 50 9.9 43 6.3 79 79 S 5 7 30.26 1025 N/A N/A
10:55 am 10:55 Sunny 54 12.1 36 2.2 51 51 SW 7 11 30.25 1025 N/A N/A
11:15 am 11:15 Sunny 55 12.8 34 1.1 45 45 S 5 7 30.26 1025 N/A N/A
11:35 am 11:35 Sunny 56 13.5 40 4.2 54 54 SW 6 9 30.25 1024 N/A N/A
11:55 am 11:55 Sunny 57 14.1 39 3.7 50 50 SW 6 9 30.24 1024 N/A N/A
12:15 pm 12:15 Sunny 58 14.4 37 2.7 46 46 SSW 6 9 30.24 1024 N/A N/A
12:35 pm 12:35 Sunny 59 15 37 3 45 45 SSW 8 13 30.24 1024 N/A N/A
12:55 pm 12:55 Sunny 59 15.2 36 2.2 42 42 SW 3 6 30.23 1024 N/A N/A
1:15 pm 13:15 Sunny 61 15.9 38 3.2 43 43 SSW 9 15 30.21 1023 N/A N/A
1:35 pm 13:35 Sunny 61 15.9 37 2.5 41 41 S 9 15 30.21 1023 N/A N/A
1:55 pm 13:55 Sunny 61 16.1 37 2.5 40 40 S 7 11 30.20 1023 N/A N/A
2:15 pm 14:15 Sunny 62 16.7 36 2.3 38 38 WSW 5 7 30.18 1022 N/A N/A
2:35 pm 14:35 Sunny 62 16.9 34 1.1 35 35 WSW 5 7 30.18 1022 N/A N/A
2:55 pm 14:55 Sunny 64 17.7 37 2.9 37 37 S 9 15 30.17 1022 N/A N/A
3:15 pm 15:15 Sunny 64 17.5 35 1.4 34 34 SW 8 13 30.16 1021 N/A N/A
3:35 pm 15:35 Sunny 64 17.9 36 2.1 35 35 S 10 17 30.15 1021 N/A N/A
3:55 pm 15:55 Sunny 64 17.8 35 1.6 34 34 S 9 15 30.15 1021 N/A N/A
4:15 pm 16:15 Sunny 64 17.8 36 2.2 35 35 SSW 8 13 30.14 1021 N/A N/A
4:35 pm 16:35 Partly Cloudy 65 18.3 37 2.6 35 35 SSW 7 11 30.12 1020 N/A N/A
4:55 pm 16:55 Partly Cloudy 65 18.6 37 2.8 35 35 SW 7 11 30.12 1020 N/A N/A
5:15 pm 17:15 Sunny 65 18.6 36 2.4 34 34 SW 13 20 30.11 1020 N/A N/A
5:35 pm 17:35 Sunny 66 18.7 37 2.7 35 35 SSW 12 19 30.10 1019 N/A N/A
5:55 pm 17:55 Sunny 65 18.5 35 1.8 33 33 S 12 19 30.09 1019 N/A N/A
6:15 pm 18:15 Sunny 65 18.5 35 1.7 33 33 SSW 10 17 30.09 1019 N/A N/A
6:35 pm 18:35 Sunny 65 18.5 36 2.1 34 34 SSW 15 24 30.08 1019 N/A N/A
6:55 pm 18:55 Sunny 65 18.1 36 2.1 34 34 S 15 24 30.07 1018 N/A N/A
7:15 pm 19:15 Sunny 63 17.2 34 1.3 34 34 SSW 12 19 30.07 1018 N/A N/A
7:35 pm 19:35 Sunny 63 17.4 35 1.6 35 35 S 10 17 30.06 1018 N/A N/A
7:55 pm 19:55 Sunny 62 16.4 36 2.2 39 39 S 10 17 30.06 1018 N/A N/A
8:15 pm 20:15 Partly Cloudy 61 16.3 37 2.5 40 40 S 13 20 30.05 1018 N/A N/A
8:35 pm 20:35 Partly Cloudy 61 16 37 2.7 41 41 S 13 20 30.05 1018 N/A N/A
8:55 pm 20:55 Mostly Cloudy 61 15.9 36 2.3 40 40 S 9 15 30.05 1018 N/A N/A
9:15 pm 21:15 Cloudy 60 15.7 37 2.6 42 42 S 8 13 30.05 1018 N/A N/A
9:35 pm 21:35 Cloudy 60 15.8 36 2.3 40 40 S 9 15 30.05 1018 N/A N/A
9:55 pm 21:55 Cloudy 60 15.6 36 2.4 41 41 S 10 17 30.06 1018 N/A N/A
10:15 pm 22:15 Cloudy 60 15.6 36 2.2 41 41 S 9 15 30.06 1018 N/A N/A
10:35 pm 22:35 Cloudy 60 15.5 35 1.9 40 40 S 13 20 30.06 1018 N/A N/A
10:55 pm 22:55 Cloudy 59 15.2 37 3 44 44 S 9 15 30.06 1018 N/A N/A
11:15 pm 23:15 Cloudy 59 14.9 39 3.7 47 47 SSW 12 19 30.06 1018 N/A N/A
11:35 pm 23:35 Cloudy 58 14.6 40 4.3 50 50 SSW 14 22 30.06 1018 N/A N/A
11:55 pm 23:55 Cloudy 58 14.2 41 4.8 53 53 SSW 6 9 30.06 1018 N/A N/A

Powered by AerisWeather